Vorticity
-1 8 11 -7 -3 1 3 -11 -10 13 7 4 0 3 5 6 11 0 2 14 16 15 21 5 19 12 -4 1 3 1 8 3 3 3 3 1 1 5 -1 2 3 11 9 5
11 7 -6 16 8 6 -3 2 1 5 -2 -1 -4 -1 -2 1 4 4 -1 7 8 9 18 21 9 16 10 2 -5 9 8 -5 10 8 6 4 2 2 4 -2 6 11 7 21
-8 -5 22 -4 3 6 8 5 10 -6 4 -4 4 11 -1 2 9 -1 7 7 3 11 11 17 12 7 6 3 12 6 6 5 18 8 5 4 5 5 -7 4 13 11 4 3
15 18 -22 34 22 13 1 9 10 5 20 -2 23 20 25 27 17 14 2 3 12 7 15 3 6 10 4 4 5 5 16 6 12 13 5 4 5 3 4 11 8 6 5 8
24 8 25 -21 -20 11 16 12 16 29 21 12 18 12 24 17 25 24 8 4 9 7 16 24 10 23 24 14 0 6 4 11 10 8 18 13 12 13 10 12 3 5 6 11
-8 1 12 17 31 -14 28 -48 15 25 12 46 33 -26 26 1 -1 -1 12 12 17 6 15 0 2 11 3 6 7 7 2 -4 10 6 4 10 5 7 9 19 2 12 14 11
48 5 -4 9 13 32 20 10 13 30 13 -21 36 35 -51 -34 14 17 -10 51 27 16 10 -1 7 6 3 7 6 -0 8 2 -1 -2 3 9 1 9 14 2 15 12 10 11
-15 38 26 -5 2 -19 16 -7 -55 2 13 26 -9 7 -35 21 14 23 13 7 59 9 21 6 9 1 11 9 6 -3 1 5 4 7 4 0 8 12 17 13 12 12 13 9
19 5 -29 44 44 -23 21 5 -10 -23 -19 12 -3 43 51 10 -37 -12 -20 2 14 3 59 -3 5 7 1 5 10 5 5 16 10 6 7 12 7 15 15 16 13 10 7 3
3 15 27 9 12 36 -14 27 29 -18 13 10 17 9 -51 23 43 41 42 19 -2 20 -1 28 10 6 3 6 5 9 5 11 17 11 14 8 7 13 9 17 10 6 4 4
-6 -47 -4 51 13 -5 24 10 -15 29 -41 3 14 18 46 48 5 2 -14 14 31 4 13 9 27 26 15 6 -6 5 11 9 16 8 8 1 4 8 15 13 9 6 5 4
29 39 18 -17 16 35 17 -1 -18 -40 45 42 -83 -21 -1 -23 47 25 27 3 -12 20 12 6 15 12 -6 3 9 12 10 10 14 19 -3 9 10 9 12 3 11 5 4 4
36 10 36 68 -25 12 33 1 17 -8 12 -4 -40 39 69 72 -21 -26 -9 15 18 5 -4 12 15 -13 12 9 -4 8 13 12 15 7 -2 -10 -3 11 18 12 10 6 5 6
-17 -1 -22 -22 1 6 -6 36 2 -3 -16 4 4 2 -97 3 46 45 27 16 19 17 18 12 9 12 13 15 15 20 16 10 19 -9 -2 7 5 12 18 11 9 7 7 4
13 11 0 152 -6 -3 17 12 12 15 -10 -19 1 2 7 8 -41 11 11 -5 -13 -13 -20 13 5 4 -10 6 17 17 14 20 -4 -10 1 14 21 13 10 10 8 8 3 3
18 3 -7 -26 28 42 -1 50 -1 13 14 14 -13 17 23 4 27 18 25 17 8 17 18 24 12 12 16 16 24 18 11 7 4 2 13 10 6 4 10 11 6 3 7 6
18 24 24 19 15 -45 66 73 2 14 4 -3 -2 -10 19 -2 2 -8 -17 -15 -3 1 20 6 -17 -3 13 13 20 24 15 10 2 3 11 12 12 10 11 4 6 4 4 11
-19 -11 7 -18 18 29 -29 42 56 6 23 7 6 5 21 13 2 3 21 31 10 4 -13 -22 -16 10 13 20 10 15 12 6 4 6 9 13 11 6 8 5 2 4 13 9
2 21 1 -1 -6 -54 -9 1 -35 61 21 -1 2 1 10 -9 11 15 11 -2 2 14 16 35 19 -10 33 17 12 3 10 -0 3 2 9 15 6 7 5 1 -0 9 11 11
46 30 3 -18 0 9 -21 3 31 -41 45 24 22 13 7 12 23 26 5 15 20 23 24 8 -8 29 19 10 11 9 -2 6 14 4 19 7 3 5 -1 1 2 14 11 20
19 18 3 13 -9 30 15 15 32 60 -19 -19 64 8 15 18 -14 -4 -6 6 13 27 15 25 28 2 4 30 12 1 5 12 9 4 14 6 0 1 4 5 7 11 22 15
-3 -7 29 28 17 17 12 36 -6 0 30 31 1 16 34 16 8 17 14 8 -6 -11 25 9 8 -11 12 16 15 3 5 15 6 5 9 4 0 6 5 6 12 22 15 10
7 -24 -31 -38 -0 -19 38 30 9 14 -5 35 -8 41 6 14 28 31 11 10 -22 -7 25 36 -3 -10 12 15 12 8 5 10 5 2 6 0 4 4 1 10 14 19 10 14
-8 2 6 30 10 3 31 -11 -27 -6 -33 18 45 9 32 -2 31 37 27 25 21 1 19 18 36 6 18 13 8 6 12 7 3 -0 -0 5 2 2 13 13 14 12 9 11
-1 15 13 6 9 7 10 20 27 40 -0 -12 -45 54 32 49 22 2 20 46 14 15 20 17 22 27 15 16 3 15 7 10 -3 8 2 8 -1 14 8 15 9 9 12 13
8 2 12 -14 36 19 27 12 3 46 36 13 -11 42 -6 11 3 42 32 21 26 12 14 15 15 9 15 -3 11 17 8 -3 9 8 -3 -4 15 7 16 12 6 10 12 9
Height
3054 3055 3042 3047 3056 3064 3068 3067 3066 3068 3076 3076 3074 3073 3076 3081 3077 3079 3080 3082 3083 3085 3090 3095 3098 3103 3105 3109 3112 3115 3118 3121 3123 3125 3128 3129 3132 3133 3134 3136 3137 3137 3139 3139
3047 3035 3039 3050 3054 3058 3060 3059 3053 3061 3069 3070 3067 3059 3064 3068 3070 3070 3073 3074 3075 3077 3080 3084 3090 3093 3097 3101 3105 3108 3111 3115 3118 3120 3123 3124 3127 3128 3130 3130 3132 3133 3133 3133
3028 3018 3041 3044 3046 3049 3046 3047 3054 3057 3064 3063 3062 3041 3049 3055 3058 3060 3062 3065 3067 3068 3072 3075 3080 3085 3089 3093 3096 3100 3104 3108 3111 3113 3115 3117 3120 3121 3123 3124 3125 3126 3127 3128
3020 3023 3032 3036 3034 3041 3038 3046 3053 3056 3061 3055 3058 3023 3034 3040 3043 3048 3051 3055 3059 3060 3063 3067 3072 3077 3081 3087 3090 3094 3097 3100 3103 3106 3108 3111 3113 3115 3116 3117 3117 3119 3120 3121
2999 3008 3021 3027 3022 3036 3033 3044 3049 3053 3054 3054 3039 3044 3007 3028 3028 3035 3042 3046 3050 3052 3054 3058 3064 3069 3073 3078 3083 3087 3091 3094 3097 3099 3101 3104 3106 3108 3109 3109 3110 3111 3112 3113
2995 3009 3016 3013 3026 3030 3037 3043 3047 3049 3052 3042 3027 3042 2963 3013 3017 3021 3028 3033 3038 3043 3046 3049 3053 3058 3064 3069 3074 3079 3084 3088 3090 3092 3094 3097 3099 3101 3102 3102 3104 3106 3106 3106
2990 2995 3004 3009 3015 3022 3029 3036 3041 3044 3041 3009 3026 3027 2976 3000 3008 3012 3015 3016 3023 3032 3036 3040 3044 3049 3055 3060 3066 3072 3075 3079 3083 3085 3088 3090 3092 3093 3093 3095 3097 3098 3100 3101
2985 2987 2986 2994 3000 3007 3013 3020 3021 3023 3019 3005 3024 2995 2967 3000 3004 3005 3009 3010 3013 3019 3026 3031 3037 3041 3047 3052 3058 3062 3067 3070 3073 3077 3080 3082 3084 3086 3086 3088 3090 3092 3094 3096
2977 2975 2978 2982 2993 3000 3006 3009 3005 3014 3011 3011 2997 2975 2977 2986 2991 2997 3001 3005 3009 3012 3015 3020 3028 3033 3039 3044 3049 3054 3058 3061 3064 3068 3071 3074 3078 3079 3080 3081 3084 3086 3089 3091
2968 2970 2969 2978 2986 2988 2988 2997 3007 3009 3009 3009 2975 2975 2964 2970 2976 2982 2987 2993 2999 3004 3007 3011 3017 3023 3030 3035 3040 3045 3049 3052 3056 3060 3064 3068 3070 3072 3072 3075 3078 3081 3083 3083
2961 2964 2965 2970 2963 2964 2981 2988 2993 2996 2996 2992 2972 2957 2957 2961 2967 2973 2978 2984 2989 2994 2998 3002 3006 3012 3018 3025 3031 3036 3040 3043 3048 3053 3057 3060 3061 3062 3065 3069 3072 3074 3075 3076
2950 2953 2952 2953 2956 2960 2961 2962 2973 2977 2972 2977 2982 2940 2948 2956 2959 2966 2972 2978 2983 2987 2991 2994 2999 3004 3010 3016 3021 3027 3031 3035 3041 3045 3048 3050 3053 3056 3059 3062 3064 3066 3068 3070
2943 2941 2936 2944 2953 2950 2946 2943 2956 2959 2966 2962 2973 2923 2942 2949 2955 2962 2967 2972 2976 2980 2983 2987 2992 2997 3001 3006 3011 3016 3022 3028 3034 3038 3040 3043 3047 3050 3052 3055 3057 3059 3061 3062
2925 2924 2925 2922 2916 2930 2937 2938 2945 2951 2957 2940 2947 2917 2937 2944 2949 2955 2961 2964 2968 2972 2977 2982 2987 2992 2996 3000 3003 3008 3014 3022 3027 3031 3033 3037 3041 3044 3046 3047 3050 3052 3053 3053
2923 2919 2917 2916 2912 2925 2923 2924 2929 2935 2932 2941 2921 2925 2920 2942 2950 2955 2959 2962 2965 2968 2971 2976 2980 2985 2989 2992 2995 3000 3008 3016 3021 3024 3027 3031 3034 3037 3039 3041 3042 3044 3044 3044
2919 2915 2916 2910 2908 2909 2911 2912 2918 2922 2924 2931 2922 2921 2917 2936 2943 2947 2951 2955 2958 2960 2964 2968 2971 2976 2981 2984 2988 2994 3001 3010 3016 3018 3023 3027 3029 3031 3033 3034 3035 3036 3037 3035
2914 2914 2916 2904 2911 2902 2892 2892 2902 2910 2914 2921 2916 2898 2921 2926 2926 2932 2940 2944 2948 2954 2958 2962 2966 2971 2976 2978 2982 2988 2996 3003 3008 3012 3017 3022 3024 3025 3028 3029 3029 3030 3028 3026
2902 2906 2910 2903 2907 2892 2890 2888 2889 2898 2899 2905 2909 2895 2896 2910 2919 2923 2926 2928 2936 2945 2953 2957 2962 2966 2969 2971 2975 2980 2988 2995 3001 3005 3010 3014 3017 3019 3021 3023 3023 3021 3020 3018
2889 2896 2899 2899 2889 2886 2879 2878 2885 2889 2881 2885 2891 2887 2899 2907 2912 2909 2910 2918 2924 2935 2943 2947 2954 2958 2960 2963 2968 2974 2980 2987 2992 2996 3001 3005 3009 3012 3013 3014 3014 3014 3012 3010
2873 2876 2885 2884 2876 2869 2849 2870 2883 2883 2870 2877 2890 2878 2885 2898 2900 2886 2901 2904 2916 2923 2931 2937 2944 2948 2953 2957 2962 2968 2974 2980 2984 2988 2993 2998 3001 3003 3005 3006 3006 3006 3004 3004
2864 2867 2869 2867 2866 2856 2841 2859 2873 2880 2865 2867 2874 2866 2869 2883 2880 2884 2893 2899 2906 2913 2919 2924 2928 2936 2944 2948 2954 2960 2967 2972 2978 2982 2986 2990 2993 2996 2997 2996 2997 2999 2997 2997
2853 2861 2861 2859 2860 2855 2845 2856 2862 2859 2855 2857 2859 2860 2864 2871 2876 2878 2883 2889 2897 2903 2908 2911 2917 2925 2934 2939 2946 2953 2958 2964 2969 2975 2978 2982 2984 2986 2987 2989 2991 2992 2992 2993
2845 2844 2847 2849 2844 2841 2840 2840 2845 2850 2852 2847 2843 2845 2848 2857 2862 2866 2871 2877 2884 2891 2897 2902 2910 2917 2924 2931 2938 2944 2948 2954 2960 2967 2971 2975 2976 2979 2981 2982 2985 2987 2987 2988
2830 2835 2838 2839 2830 2826 2826 2831 2835 2839 2838 2832 2830 2830 2835 2841 2848 2852 2856 2861 2868 2877 2884 2891 2897 2906 2914 2920 2927 2933 2941 2946 2952 2958 2963 2966 2970 2973 2975 2975 2977 2981 2983 2982
2820 2826 2822 2822 2815 2816 2810 2816 2820 2822 2822 2815 2822 2826 2827 2829 2834 2841 2842 2847 2857 2867 2873 2881 2886 2897 2903 2910 2918 2927 2930 2938 2942 2950 2958 2959 2963 2966 2967 2969 2972 2974 2975 2976
2807 2810 2814 2804 2804 2804 2801 2803 2808 2806 2805 2809 2814 2814 2816 2816 2822 2827 2832 2838 2846 2856 2865 2872 2879 2886 2893 2903 2911 2917 2924 2931 2936 2944 2948 2954 2958 2960 2961 2963 2966 2968 2970 2970